Daily Data: Northwest Mesa

   
6/25/17
Time         Wind Dir   Wind Spd  Wind Gust   Humidity       Temp  Dew Point   Barom SL  DailyRain   HourRain   RainRate
                            mph        mph          %         F         F         in         in         in      in/hr
12:00am           240          0          0         16       96.3       42.9      29.49       0.00       0.00      0.000
12:05am           241          0          0         17       96.1       44.3      29.49       0.00       0.00      0.000
12:10am           158          1          2         17       96.1       44.3      29.49       0.00       0.00      0.000
12:15am           158          0          1         17       96.1       44.3      29.49       0.00       0.00      0.000
12:20am           158          0          0         17       95.9       44.1      29.49       0.00       0.00      0.000
12:25am           158          1          1         18       95.6       45.4      29.49       0.00       0.00      0.000
12:30am           158          0          2         18       95.1       45.0      29.49       0.00       0.00      0.000
12:35am           158          0          0         18       94.9       44.8      29.49       0.00       0.00      0.000
12:40am           158          0          0         18       94.7       44.7      29.49       0.00       0.00      0.000
12:45am           158          0          2         18       94.7       44.7      29.49       0.00       0.00      0.000
12:50am           158          0          1         18       94.9       44.8      29.49       0.00       0.00      0.000
12:55am           158          0          0         18       94.7       44.7      29.49       0.00       0.00      0.000
1:00am            158          0          0         18       94.5       44.5      29.49       0.00       0.00      0.000
1:05am            158          0          0         18       94.3       44.3      29.49       0.00       0.00      0.000
1:10am            158          0          0         19       93.6       45.2      29.49       0.00       0.00      0.000
1:15am            158          0          0         20       93.4       46.4      29.50       0.00       0.00      0.000
1:20am            158          1          2         20       92.9       46.0      29.50       0.00       0.00      0.000
1:25am            158          1          2         20       92.7       45.8      29.50       0.00       0.00      0.000
1:30am            158          1          2         21       92.5       46.9      29.50       0.00       0.00      0.000
1:35am            158          1          3         19       93.2       44.9      29.50       0.00       0.00      0.000
1:40am            137          3         10         16       94.9       41.7      29.50       0.00       0.00      0.000
1:45am            136          2          5         15       96.3       41.2      29.50       0.00       0.00      0.000
1:50am            127          4          6         14       97.3       40.2      29.50       0.00       0.00      0.000
1:55am            121          1          7         14       97.8       40.6      29.50       0.00       0.00      0.000
2:00am            123          2          7         15       98.2       42.7      29.51       0.00       0.00      0.000
2:05am            124          3          7         15       98.2       42.7      29.51       0.00       0.00      0.000
2:10am            137          4          7         16       98.0       44.2      29.51       0.00       0.00      0.000
2:15am            145          6          6         16       98.0       44.2      29.51       0.00       0.00      0.000
2:20am            123          3          7         17       97.8       45.6      29.51       0.00       0.00      0.000
2:25am            144          3         11         17       97.8       45.6      29.51       0.00       0.00      0.000
2:30am            150          3          8         16       97.3       43.7      29.52       0.00       0.00      0.000
2:35am            155          5         10         15       96.8       41.6      29.52       0.00       0.00      0.000
2:40am            147          2          8         16       96.3       42.9      29.52       0.00       0.00      0.000
2:45am            150          4          7         16       95.9       42.5      29.53       0.00       0.00      0.000
2:50am            151          2         11         16       95.6       42.3      29.53       0.00       0.00      0.000
2:55am            179          4          9         17       95.4       43.7      29.53       0.00       0.00      0.000
3:00am            141          5          6         17       95.1       43.5      29.53       0.00       0.00      0.000